Weather History for CWDT - July, 2013

Change the Weather History Date:

Monday, July 22, 2013

  Actual Average Record
Temperature  
Mean Temperature 60 °F -  
Max Temperature 71 °F - - ()
Min Temperature 48 °F - - ()
Degree Days  
Heating Degree Days 6    
Growing Degree Days 10 (Base 50)    
Moisture  
Dew Point 47 °F    
Average Humidity 64    
Maximum Humidity 89    
Minimum Humidity 40    
Precipitation  
Precipitation 0.00 in - - ()
Sea Level Pressure  
Sea Level Pressure 29.88 in    
Wind  
Wind Speed 4 mph ()    
Max Wind Speed 30 mph    
Max Gust Speed -    
T = Trace of Precipitation, MM = Missing Value Source: Averaged Metar Reports

Daily Weather History Graph

Daily Weather History Graph

Search for Another Location

Airport or City:

Trip Planner

Search our weather history database for the weather conditions in past years. The results will help you decide how hot, cold, wet, or windy it might be!

Date:

Astronomy

Jul. 22, 2013 Rise Set
Actual Time 5:01 AM EDT 8:39 PM EDT
Civil Twilight 4:21 AM EDT 9:20 PM EDT
Nautical Twilight 3:26 AM EDT 10:14 PM EDT
Astronomical Twilight 2:05 AM EDT 11:33 PM EDT
Moon 8:13 PM EDT (7/22) 5:00 AM EDT (7/22)
Length of Visible Light 16h 59m
Length of Day
15h 38m
Full, 100% of the Moon is Illuminated
Jul 22
Full
Jul 22
Full
Jul 29
Last Quarter
Aug 6
New
Aug 14
First Quarter

Hourly Weather History & Observations

Time (EDT) Temp. Dew Point Humidity Pressure Visibility Wind Dir Wind Speed Gust Speed Precip Events Conditions
12:00 AM 54.0 °F 46.9 °F 77% 29.96 in - West 3.5 mph - N/A   Unknown
1:00 AM 49.8 °F 46.6 °F 89% 28.56 in - NE 1.2 mph - N/A   Unknown
2:00 AM 50 °F 46 °F 83% 29.98 in - West 1.2 mph - -  
2:00 AM 49.6 °F 46.4 °F 89% 29.98 in - West 1.2 mph - N/A   Unknown
3:00 AM 52.0 °F 45.9 °F 80% 29.97 in - WSW 2.3 mph - N/A   Unknown
4:00 AM 50.7 °F 46.6 °F 86% 29.96 in - West 2.3 mph - N/A   Unknown
5:00 AM 48.9 °F 45.7 °F 89% 29.98 in - Calm Calm - N/A   Unknown
6:00 AM 50.7 °F 46.6 °F 86% 29.98 in - NW 3.5 mph - N/A   Unknown
7:00 AM 52.0 °F 46.9 °F 83% 29.99 in - NE 1.2 mph - N/A   Unknown
8:00 AM 57 °F 48 °F 64% 29.99 in - SW 4.6 mph - -  
8:00 AM 57.2 °F 48.2 °F 72% 29.99 in - SW 4.6 mph - N/A   Unknown
9:00 AM 59.2 °F 48.2 °F 67% 29.97 in - SSW 3.5 mph - N/A   Unknown
10:00 AM 62.1 °F 47.5 °F 59% 29.98 in - WSW 5.8 mph - N/A   Unknown
11:00 AM 66.6 °F 46.8 °F 49% 29.95 in - WNW 9.2 mph - N/A   Unknown
12:00 PM 68.0 °F 46.9 °F 47% 29.94 in - West 9.2 mph - N/A   Unknown
1:00 PM 68.4 °F 47.8 °F 48% 29.93 in - West 6.9 mph - N/A   Unknown
2:00 PM 69.1 °F 46.8 °F 45% 29.92 in - WSW 4.6 mph - N/A   Unknown
3:00 PM 68.5 °F 46.2 °F 45% 29.93 in - WSW 5.8 mph - N/A   Unknown
4:00 PM - - N/A% - - North 29.9 mph - N/A   Unknown
5:00 PM 71.6 °F 46.6 °F 41% 29.88 in - SSW 6.9 mph - N/A   Unknown
6:00 PM 70.7 °F 45.9 °F 41% 29.88 in - WSW 5.8 mph - N/A   Unknown
7:00 PM 69.4 °F 45.9 °F 43% 29.87 in - WSW 3.5 mph - N/A   Unknown
8:00 PM 66 °F 47 °F 40% 29.87 in - WSW 2.3 mph - -  
8:00 PM 66.2 °F 47.5 °F 51% 29.87 in - WSW 2.3 mph - N/A   Unknown
9:00 PM 64.4 °F 46.4 °F 52% 29.87 in - West 3.5 mph - N/A   Unknown
10:00 PM 56.8 °F 47.8 °F 72% 29.87 in - NW 3.5 mph - N/A   Unknown
11:00 PM 56.3 °F 48.4 °F 75% 29.86 in - WNW 2.3 mph - N/A   Unknown